Gauley at Summersville (cfs) [ USA-WVR ]

Edit Gauge

Current Conditions

Reading of "n/a" = frozen gauge or gauge error.
Reading Trend Type Updated
225 cfs 0 cfs/hr Flow 01h31m

Station Description

AW Gauge ID: 8515
Source: virtual
Station: 8515
Enabled yes
Description:StreamTeam Member: Matt Muir The virtual Gauley gauge is based on the rating table published by the USGS in Oct 2003. Funding to update the rating table is no longer available. Discharge values calculated by this virtual gauge are thus calculated based on channel bed morphology as of 2003.
Calculation:$g = $gauge[1434]->getValue(GMETRIC_STAGE,0); if ($g >= 8.9) { $x=(-0.0344*pow($g,5))+(2.6808*pow($g,4))-(77.748*pow($g,3))+(1150.7*pow($g,2))-(7873.3*$g)+19890; } elseif ($g >= 7.0) { $x=(69.822*pow($g,2))-(656.23*$g)+1354.5; } elseif ($g >= 6.5) { $x=(171.43*pow($g,2))-(2104.1*$g)+6474; } else { $x=40; } $flow = $x;
Data is courtesy of AW's Stream Team program. This data is calculated based on other gauges and information provided by the Stream Team. This data, and any river data, should be used with caution.

Information

Flow

Gauge History

Times listed in GMT 24h, ET and PT hours provided for convenience Graphs in GMT. Readings of "n/a" constitute a frozen gauge or gauge error.
Reading Updated (GMT) Eastern Pacific Comment
225.11 04/19/2014 18:27:12 Apr 19 02:27 pm Apr 19 11:27 am
225.11 04/19/2014 17:27:28 Apr 19 01:27 pm Apr 19 10:27 am
221.73 04/19/2014 16:27:44 Apr 19 12:27 pm Apr 19 9:27 am
221.73 04/19/2014 15:25:52 Apr 19 11:25 am Apr 19 8:25 am
221.73 04/19/2014 14:26:08 Apr 19 10:26 am Apr 19 7:26 am
225.11 04/19/2014 13:26:24 Apr 19 09:26 am Apr 19 6:26 am
225.11 04/19/2014 12:26:40 Apr 19 08:26 am Apr 19 5:26 am
221.73 04/19/2014 11:26:56 Apr 19 07:26 am Apr 19 4:26 am
221.73 04/19/2014 10:27:12 Apr 19 06:27 am Apr 19 3:27 am
225.11 04/19/2014 09:27:28 Apr 19 05:27 am Apr 19 2:27 am
221.73 04/19/2014 08:27:44 Apr 19 04:27 am Apr 19 1:27 am
221.73 04/19/2014 07:25:52 Apr 19 03:25 am Apr 19 12:25 am
221.73 04/19/2014 06:26:08 Apr 19 02:26 am Apr 18 11:26 pm
221.73 04/19/2014 05:26:24 Apr 19 01:26 am Apr 18 10:26 pm
221.73 04/19/2014 04:26:40 Apr 19 12:26 am Apr 18 9:26 pm
221.73 04/19/2014 03:26:56 Apr 18 11:26 pm Apr 18 8:26 pm
221.73 04/19/2014 02:27:12 Apr 18 10:27 pm Apr 18 7:27 pm
221.73 04/19/2014 00:27:44 Apr 18 08:27 pm Apr 18 5:27 pm
221.73 04/18/2014 23:25:52 Apr 18 07:25 pm Apr 18 4:25 pm
221.73 04/18/2014 22:26:08 Apr 18 06:26 pm Apr 18 3:26 pm
221.73 04/18/2014 21:26:24 Apr 18 05:26 pm Apr 18 2:26 pm
221.73 04/18/2014 20:26:40 Apr 18 04:26 pm Apr 18 1:26 pm
225.11 04/18/2014 19:26:56 Apr 18 03:26 pm Apr 18 12:26 pm
221.73 04/18/2014 18:27:12 Apr 18 02:27 pm Apr 18 11:27 am
221.73 04/18/2014 17:27:28 Apr 18 01:27 pm Apr 18 10:27 am
225.11 04/18/2014 16:27:44 Apr 18 12:27 pm Apr 18 9:27 am
221.73 04/18/2014 15:25:52 Apr 18 11:25 am Apr 18 8:25 am
221.73 04/18/2014 14:26:08 Apr 18 10:26 am Apr 18 7:26 am
225.11 04/18/2014 13:26:24 Apr 18 09:26 am Apr 18 6:26 am
221.73 04/18/2014 12:26:40 Apr 18 08:26 am Apr 18 5:26 am
225.11 04/18/2014 11:26:56 Apr 18 07:26 am Apr 18 4:26 am
221.73 04/18/2014 10:27:12 Apr 18 06:27 am Apr 18 3:27 am
221.73 04/18/2014 09:27:28 Apr 18 05:27 am Apr 18 2:27 am
225.11 04/18/2014 08:27:44 Apr 18 04:27 am Apr 18 1:27 am
221.73 04/18/2014 07:25:52 Apr 18 03:25 am Apr 18 12:25 am
221.73 04/18/2014 06:26:08 Apr 18 02:26 am Apr 17 11:26 pm
221.73 04/18/2014 05:26:24 Apr 18 01:26 am Apr 17 10:26 pm
221.73 04/18/2014 04:26:40 Apr 18 12:26 am Apr 17 9:26 pm
221.73 04/18/2014 03:26:56 Apr 17 11:26 pm Apr 17 8:26 pm
218.35 04/18/2014 01:27:28 Apr 17 09:27 pm Apr 17 6:27 pm
221.73 04/17/2014 23:25:52 Apr 17 07:25 pm Apr 17 4:25 pm
221.73 04/17/2014 22:26:08 Apr 17 06:26 pm Apr 17 3:26 pm
221.73 04/17/2014 21:26:24 Apr 17 05:26 pm Apr 17 2:26 pm
221.73 04/17/2014 20:26:40 Apr 17 04:26 pm Apr 17 1:26 pm
221.73 04/17/2014 19:26:56 Apr 17 03:26 pm Apr 17 12:26 pm
225.11 04/17/2014 18:27:12 Apr 17 02:27 pm Apr 17 11:27 am
228.51 04/17/2014 17:27:28 Apr 17 01:27 pm Apr 17 10:27 am
228.51 04/17/2014 16:27:44 Apr 17 12:27 pm Apr 17 9:27 am
231.93 04/17/2014 15:25:52 Apr 17 11:25 am Apr 17 8:25 am
228.51 04/17/2014 14:26:08 Apr 17 10:26 am Apr 17 7:26 am
228.51 04/17/2014 13:26:24 Apr 17 09:26 am Apr 17 6:26 am
228.51 04/17/2014 12:26:40 Apr 17 08:26 am Apr 17 5:26 am
228.51 04/17/2014 11:26:56 Apr 17 07:26 am Apr 17 4:26 am
228.51 04/17/2014 10:27:12 Apr 17 06:27 am Apr 17 3:27 am
228.51 04/17/2014 09:27:28 Apr 17 05:27 am Apr 17 2:27 am
231.93 04/17/2014 08:27:44 Apr 17 04:27 am Apr 17 1:27 am
228.51 04/17/2014 07:25:52 Apr 17 03:25 am Apr 17 12:25 am
228.51 04/17/2014 06:26:08 Apr 17 02:26 am Apr 16 11:26 pm
228.51 04/17/2014 04:26:40 Apr 17 12:26 am Apr 16 9:26 pm
225.11 04/17/2014 03:26:56 Apr 16 11:26 pm Apr 16 8:26 pm
228.51 04/17/2014 02:27:12 Apr 16 10:27 pm Apr 16 7:27 pm
225.11 04/17/2014 00:27:44 Apr 16 08:27 pm Apr 16 5:27 pm
231.93 04/16/2014 23:25:52 Apr 16 07:25 pm Apr 16 4:25 pm
228.51 04/16/2014 22:26:08 Apr 16 06:26 pm Apr 16 3:26 pm
228.51 04/16/2014 21:26:24 Apr 16 05:26 pm Apr 16 2:26 pm
231.93 04/16/2014 20:26:40 Apr 16 04:26 pm Apr 16 1:26 pm
228.51 04/16/2014 19:26:56 Apr 16 03:26 pm Apr 16 12:26 pm
228.51 04/16/2014 18:27:12 Apr 16 02:27 pm Apr 16 11:27 am
238.80 04/16/2014 17:27:28 Apr 16 01:27 pm Apr 16 10:27 am
235.36 04/16/2014 16:27:44 Apr 16 12:27 pm Apr 16 9:27 am
245.73 04/16/2014 15:25:52 Apr 16 11:25 am Apr 16 8:25 am
284.83 04/16/2014 14:26:08 Apr 16 10:26 am Apr 16 7:26 am
284.83 04/16/2014 13:26:24 Apr 16 09:26 am Apr 16 6:26 am
284.83 04/16/2014 12:26:40 Apr 16 08:26 am Apr 16 5:26 am
284.83 04/16/2014 11:26:56 Apr 16 07:26 am Apr 16 4:26 am
284.83 04/16/2014 10:27:12 Apr 16 06:27 am Apr 16 3:27 am
284.83 04/16/2014 09:27:28 Apr 16 05:27 am Apr 16 2:27 am
284.83 04/16/2014 08:27:44 Apr 16 04:27 am Apr 16 1:27 am
284.83 04/16/2014 07:25:52 Apr 16 03:25 am Apr 16 12:25 am
284.83 04/16/2014 06:26:08 Apr 16 02:26 am Apr 15 11:26 pm
284.83 04/16/2014 05:26:24 Apr 16 01:26 am Apr 15 10:26 pm
281.21 04/16/2014 04:26:40 Apr 16 12:26 am Apr 15 9:26 pm
284.83 04/16/2014 03:26:56 Apr 15 11:26 pm Apr 15 8:26 pm
284.83 04/16/2014 01:27:28 Apr 15 09:27 pm Apr 15 6:27 pm
284.83 04/15/2014 23:25:52 Apr 15 07:25 pm Apr 15 4:25 pm
284.83 04/15/2014 22:26:08 Apr 15 06:26 pm Apr 15 3:26 pm
284.83 04/15/2014 21:26:24 Apr 15 05:26 pm Apr 15 2:26 pm
284.83 04/15/2014 20:26:40 Apr 15 04:26 pm Apr 15 1:26 pm
284.83 04/15/2014 19:26:56 Apr 15 03:26 pm Apr 15 12:26 pm
284.83 04/15/2014 18:27:12 Apr 15 02:27 pm Apr 15 11:27 am
284.83 04/15/2014 17:27:28 Apr 15 01:27 pm Apr 15 10:27 am
284.83 04/15/2014 16:27:44 Apr 15 12:27 pm Apr 15 9:27 am
284.83 04/15/2014 15:25:52 Apr 15 11:25 am Apr 15 8:25 am
281.21 04/15/2014 14:26:08 Apr 15 10:26 am Apr 15 7:26 am
284.83 04/15/2014 13:26:24 Apr 15 09:26 am Apr 15 6:26 am
284.83 04/15/2014 12:26:40 Apr 15 08:26 am Apr 15 5:26 am
281.21 04/15/2014 11:26:56 Apr 15 07:26 am Apr 15 4:26 am
284.83 04/15/2014 10:27:12 Apr 15 06:27 am Apr 15 3:27 am
281.21 04/15/2014 09:27:28 Apr 15 05:27 am Apr 15 2:27 am
281.21 04/15/2014 08:27:44 Apr 15 04:27 am Apr 15 1:27 am
281.21 04/15/2014 07:25:52 Apr 15 03:25 am Apr 15 12:25 am
281.21 04/15/2014 06:26:08 Apr 15 02:26 am Apr 14 11:26 pm
281.21 04/15/2014 05:26:24 Apr 15 01:26 am Apr 14 10:26 pm
284.83 04/15/2014 04:26:40 Apr 15 12:26 am Apr 14 9:26 pm
281.21 04/15/2014 01:27:28 Apr 14 09:27 pm Apr 14 6:27 pm
281.21 04/14/2014 23:25:52 Apr 14 07:25 pm Apr 14 4:25 pm
281.21 04/14/2014 22:26:08 Apr 14 06:26 pm Apr 14 3:26 pm
281.21 04/14/2014 21:26:24 Apr 14 05:26 pm Apr 14 2:26 pm
281.21 04/14/2014 20:26:40 Apr 14 04:26 pm Apr 14 1:26 pm
284.83 04/14/2014 19:26:56 Apr 14 03:26 pm Apr 14 12:26 pm
284.83 04/14/2014 18:27:12 Apr 14 02:27 pm Apr 14 11:27 am
281.21 04/14/2014 17:27:28 Apr 14 01:27 pm Apr 14 10:27 am
284.83 04/14/2014 16:27:44 Apr 14 12:27 pm Apr 14 9:27 am
281.21 04/14/2014 15:25:52 Apr 14 11:25 am Apr 14 8:25 am
284.83 04/14/2014 14:26:08 Apr 14 10:26 am Apr 14 7:26 am
281.21 04/14/2014 13:26:24 Apr 14 09:26 am Apr 14 6:26 am
281.21 04/14/2014 12:26:40 Apr 14 08:26 am Apr 14 5:26 am
281.21 04/14/2014 11:26:56 Apr 14 07:26 am Apr 14 4:26 am
281.21 04/14/2014 10:27:12 Apr 14 06:27 am Apr 14 3:27 am
284.83 04/14/2014 09:27:28 Apr 14 05:27 am Apr 14 2:27 am
281.21 04/14/2014 08:27:44 Apr 14 04:27 am Apr 14 1:27 am
284.83 04/14/2014 07:25:52 Apr 14 03:25 am Apr 14 12:25 am
281.21 04/14/2014 06:26:08 Apr 14 02:26 am Apr 13 11:26 pm
284.83 04/14/2014 05:26:24 Apr 14 01:26 am Apr 13 10:26 pm
281.21 04/14/2014 04:26:40 Apr 14 12:26 am Apr 13 9:26 pm
281.21 04/14/2014 01:27:28 Apr 13 09:27 pm Apr 13 6:27 pm
281.21 04/13/2014 23:25:52 Apr 13 07:25 pm Apr 13 4:25 pm
281.21 04/13/2014 22:26:08 Apr 13 06:26 pm Apr 13 3:26 pm
281.21 04/13/2014 21:26:24 Apr 13 05:26 pm Apr 13 2:26 pm
281.21 04/13/2014 20:26:40 Apr 13 04:26 pm Apr 13 1:26 pm
284.83 04/13/2014 19:26:56 Apr 13 03:26 pm Apr 13 12:26 pm
284.83 04/13/2014 18:27:12 Apr 13 02:27 pm Apr 13 11:27 am
284.83 04/13/2014 17:27:28 Apr 13 01:27 pm Apr 13 10:27 am
281.21 04/13/2014 16:27:44 Apr 13 12:27 pm Apr 13 9:27 am
284.83 04/13/2014 15:25:52 Apr 13 11:25 am Apr 13 8:25 am
281.21 04/13/2014 14:26:08 Apr 13 10:26 am Apr 13 7:26 am
281.21 04/13/2014 13:26:24 Apr 13 09:26 am Apr 13 6:26 am
284.83 04/13/2014 12:26:40 Apr 13 08:26 am Apr 13 5:26 am
281.21 04/13/2014 11:26:56 Apr 13 07:26 am Apr 13 4:26 am
281.21 04/13/2014 10:27:12 Apr 13 06:27 am Apr 13 3:27 am
281.21 04/13/2014 09:27:28 Apr 13 05:27 am Apr 13 2:27 am
281.21 04/13/2014 08:27:44 Apr 13 04:27 am Apr 13 1:27 am
281.21 04/13/2014 07:25:52 Apr 13 03:25 am Apr 13 12:25 am
281.21 04/13/2014 06:26:08 Apr 13 02:26 am Apr 12 11:26 pm
281.21 04/13/2014 05:26:24 Apr 13 01:26 am Apr 12 10:26 pm
281.21 04/13/2014 04:26:40 Apr 13 12:26 am Apr 12 9:26 pm
281.21 04/13/2014 03:26:56 Apr 12 11:26 pm Apr 12 8:26 pm
281.21 04/12/2014 23:25:52 Apr 12 07:25 pm Apr 12 4:25 pm
281.21 04/12/2014 22:26:08 Apr 12 06:26 pm Apr 12 3:26 pm
281.21 04/12/2014 21:26:24 Apr 12 05:26 pm Apr 12 2:26 pm
281.21 04/12/2014 20:26:40 Apr 12 04:26 pm Apr 12 1:26 pm
284.83 04/12/2014 19:26:56 Apr 12 03:26 pm Apr 12 12:26 pm
281.21 04/12/2014 18:27:12 Apr 12 02:27 pm Apr 12 11:27 am
281.21 04/12/2014 17:27:28 Apr 12 01:27 pm Apr 12 10:27 am
281.21 04/12/2014 16:27:44 Apr 12 12:27 pm Apr 12 9:27 am
281.21 04/12/2014 15:25:52 Apr 12 11:25 am Apr 12 8:25 am
281.21 04/12/2014 14:26:08 Apr 12 10:26 am Apr 12 7:26 am
281.21 04/12/2014 13:26:24 Apr 12 09:26 am Apr 12 6:26 am
284.83 04/12/2014 12:26:40 Apr 12 08:26 am Apr 12 5:26 am
281.21 04/12/2014 11:26:56 Apr 12 07:26 am Apr 12 4:26 am
281.21 04/12/2014 10:27:12 Apr 12 06:27 am Apr 12 3:27 am
281.21 04/12/2014 09:27:28 Apr 12 05:27 am Apr 12 2:27 am
281.21 04/12/2014 08:27:44 Apr 12 04:27 am Apr 12 1:27 am
281.21 04/12/2014 07:25:52 Apr 12 03:25 am Apr 12 12:25 am
284.83 04/12/2014 06:26:08 Apr 12 02:26 am Apr 11 11:26 pm
281.21 04/12/2014 05:26:24 Apr 12 01:26 am Apr 11 10:26 pm
281.21 04/12/2014 04:26:40 Apr 12 12:26 am Apr 11 9:26 pm
284.83 04/12/2014 03:26:56 Apr 11 11:26 pm Apr 11 8:26 pm
281.21 04/12/2014 02:27:12 Apr 11 10:27 pm Apr 11 7:27 pm
281.21 04/11/2014 23:25:52 Apr 11 07:25 pm Apr 11 4:25 pm
284.83 04/11/2014 22:26:08 Apr 11 06:26 pm Apr 11 3:26 pm
281.21 04/11/2014 21:26:24 Apr 11 05:26 pm Apr 11 2:26 pm
277.60 04/11/2014 20:26:40 Apr 11 04:26 pm Apr 11 1:26 pm
281.21 04/11/2014 19:26:56 Apr 11 03:26 pm Apr 11 12:26 pm
284.83 04/11/2014 18:27:12 Apr 11 02:27 pm Apr 11 11:27 am
281.21 04/11/2014 17:27:28 Apr 11 01:27 pm Apr 11 10:27 am
284.83 04/11/2014 16:27:44 Apr 11 12:27 pm Apr 11 9:27 am
284.83 04/11/2014 15:25:52 Apr 11 11:25 am Apr 11 8:25 am
281.21 04/11/2014 14:26:08 Apr 11 10:26 am Apr 11 7:26 am
281.21 04/11/2014 13:26:24 Apr 11 09:26 am Apr 11 6:26 am
281.21 04/11/2014 12:26:40 Apr 11 08:26 am Apr 11 5:26 am
281.21 04/11/2014 11:26:56 Apr 11 07:26 am Apr 11 4:26 am
281.21 04/11/2014 10:27:12 Apr 11 06:27 am Apr 11 3:27 am
281.21 04/11/2014 09:27:28 Apr 11 05:27 am Apr 11 2:27 am
281.21 04/11/2014 08:27:44 Apr 11 04:27 am Apr 11 1:27 am
281.21 04/11/2014 07:25:52 Apr 11 03:25 am Apr 11 12:25 am
281.21 04/11/2014 06:26:08 Apr 11 02:26 am Apr 10 11:26 pm
281.21 04/11/2014 05:26:24 Apr 11 01:26 am Apr 10 10:26 pm
281.21 04/11/2014 04:26:40 Apr 11 12:26 am Apr 10 9:26 pm
281.21 04/11/2014 03:26:56 Apr 10 11:26 pm Apr 10 8:26 pm
281.21 04/11/2014 01:27:28 Apr 10 09:27 pm Apr 10 6:27 pm
281.21 04/10/2014 23:25:52 Apr 10 07:25 pm Apr 10 4:25 pm
281.21 04/10/2014 22:26:08 Apr 10 06:26 pm Apr 10 3:26 pm
281.21 04/10/2014 21:26:24 Apr 10 05:26 pm Apr 10 2:26 pm
281.21 04/10/2014 20:26:40 Apr 10 04:26 pm Apr 10 1:26 pm
281.21 04/10/2014 19:26:56 Apr 10 03:26 pm Apr 10 12:26 pm
281.21 04/10/2014 18:27:12 Apr 10 02:27 pm Apr 10 11:27 am
281.21 04/10/2014 17:27:28 Apr 10 01:27 pm Apr 10 10:27 am
281.21 04/10/2014 16:27:44 Apr 10 12:27 pm Apr 10 9:27 am
288.47 04/10/2014 15:25:52 Apr 10 11:25 am Apr 10 8:25 am
281.21 04/10/2014 14:26:08 Apr 10 10:26 am Apr 10 7:26 am
281.21 04/10/2014 13:26:24 Apr 10 09:26 am Apr 10 6:26 am
281.21 04/10/2014 12:26:40 Apr 10 08:26 am Apr 10 5:26 am
284.83 04/10/2014 11:26:56 Apr 10 07:26 am Apr 10 4:26 am
284.83 04/10/2014 10:27:12 Apr 10 06:27 am Apr 10 3:27 am
281.21 04/10/2014 09:27:28 Apr 10 05:27 am Apr 10 2:27 am
281.21 04/10/2014 08:27:44 Apr 10 04:27 am Apr 10 1:27 am
281.21 04/10/2014 07:25:52 Apr 10 03:25 am Apr 10 12:25 am
281.21 04/10/2014 06:26:08 Apr 10 02:26 am Apr 9 11:26 pm
281.21 04/10/2014 05:26:24 Apr 10 01:26 am Apr 9 10:26 pm
277.60 04/10/2014 04:26:40 Apr 10 12:26 am Apr 9 9:26 pm
281.21 04/10/2014 03:26:56 Apr 9 11:26 pm Apr 9 8:26 pm
281.21 04/10/2014 02:27:12 Apr 9 10:27 pm Apr 9 7:27 pm
281.21 04/10/2014 01:27:28 Apr 9 09:27 pm Apr 9 6:27 pm
281.21 04/09/2014 23:25:52 Apr 9 07:25 pm Apr 9 4:25 pm
281.21 04/09/2014 22:26:08 Apr 9 06:26 pm Apr 9 3:26 pm
277.60 04/09/2014 21:26:24 Apr 9 05:26 pm Apr 9 2:26 pm
281.21 04/09/2014 20:26:40 Apr 9 04:26 pm Apr 9 1:26 pm
284.83 04/09/2014 19:26:56 Apr 9 03:26 pm Apr 9 12:26 pm
277.60 04/09/2014 18:27:12 Apr 9 02:27 pm Apr 9 11:27 am
284.83 04/09/2014 17:27:28 Apr 9 01:27 pm Apr 9 10:27 am
281.21 04/09/2014 16:27:44 Apr 9 12:27 pm Apr 9 9:27 am
281.21 04/09/2014 15:25:52 Apr 9 11:25 am Apr 9 8:25 am
281.21 04/09/2014 14:26:08 Apr 9 10:26 am Apr 9 7:26 am
284.83 04/09/2014 13:26:24 Apr 9 09:26 am Apr 9 6:26 am
281.21 04/09/2014 12:26:40 Apr 9 08:26 am Apr 9 5:26 am
281.21 04/09/2014 11:26:56 Apr 9 07:26 am Apr 9 4:26 am
277.60 04/09/2014 10:27:12 Apr 9 06:27 am Apr 9 3:27 am
281.21 04/09/2014 09:27:28 Apr 9 05:27 am Apr 9 2:27 am
281.21 04/09/2014 08:27:44 Apr 9 04:27 am Apr 9 1:27 am
281.21 04/09/2014 07:25:52 Apr 9 03:25 am Apr 9 12:25 am
277.60 04/09/2014 06:26:08 Apr 9 02:26 am Apr 8 11:26 pm
281.21 04/09/2014 05:26:24 Apr 9 01:26 am Apr 8 10:26 pm
281.21 04/09/2014 04:26:40 Apr 9 12:26 am Apr 8 9:26 pm
281.21 04/09/2014 02:27:12 Apr 8 10:27 pm Apr 8 7:27 pm
277.60 04/09/2014 01:27:28 Apr 8 09:27 pm Apr 8 6:27 pm
281.21 04/08/2014 23:25:52 Apr 8 07:25 pm Apr 8 4:25 pm
277.60 04/08/2014 22:26:08 Apr 8 06:26 pm Apr 8 3:26 pm
281.21 04/08/2014 21:26:24 Apr 8 05:26 pm Apr 8 2:26 pm
281.21 04/08/2014 20:26:40 Apr 8 04:26 pm Apr 8 1:26 pm
281.21 04/08/2014 19:26:56 Apr 8 03:26 pm Apr 8 12:26 pm
281.21 04/08/2014 18:27:12 Apr 8 02:27 pm Apr 8 11:27 am
277.60 04/08/2014 17:27:28 Apr 8 01:27 pm Apr 8 10:27 am
281.21 04/08/2014 16:27:44 Apr 8 12:27 pm Apr 8 9:27 am
281.21 04/08/2014 15:25:52 Apr 8 11:25 am Apr 8 8:25 am
281.21 04/08/2014 14:26:08 Apr 8 10:26 am Apr 8 7:26 am
277.60 04/08/2014 13:26:24 Apr 8 09:26 am Apr 8 6:26 am
281.21 04/08/2014 12:26:40 Apr 8 08:26 am Apr 8 5:26 am
277.60 04/08/2014 11:26:56 Apr 8 07:26 am Apr 8 4:26 am
281.21 04/08/2014 10:27:12 Apr 8 06:27 am Apr 8 3:27 am
281.21 04/08/2014 09:27:28 Apr 8 05:27 am Apr 8 2:27 am
277.60 04/08/2014 08:27:44 Apr 8 04:27 am Apr 8 1:27 am
277.60 04/08/2014 07:25:52 Apr 8 03:25 am Apr 8 12:25 am
281.21 04/08/2014 06:26:08 Apr 8 02:26 am Apr 7 11:26 pm
277.60 04/08/2014 04:26:40 Apr 8 12:26 am Apr 7 9:26 pm
277.60 04/07/2014 23:25:52 Apr 7 07:25 pm Apr 7 4:25 pm
281.21 04/07/2014 22:26:08 Apr 7 06:26 pm Apr 7 3:26 pm
281.21 04/07/2014 21:26:24 Apr 7 05:26 pm Apr 7 2:26 pm
277.60 04/07/2014 20:26:40 Apr 7 04:26 pm Apr 7 1:26 pm
277.60 04/07/2014 19:26:56 Apr 7 03:26 pm Apr 7 12:26 pm
277.60 04/07/2014 18:27:12 Apr 7 02:27 pm Apr 7 11:27 am
281.21 04/07/2014 17:27:28 Apr 7 01:27 pm Apr 7 10:27 am
277.60 04/07/2014 16:27:44 Apr 7 12:27 pm Apr 7 9:27 am
277.60 04/07/2014 15:25:52 Apr 7 11:25 am Apr 7 8:25 am
274.00 04/07/2014 14:26:08 Apr 7 10:26 am Apr 7 7:26 am
281.21 04/07/2014 13:26:24 Apr 7 09:26 am Apr 7 6:26 am
281.21 04/07/2014 12:26:40 Apr 7 08:26 am Apr 7 5:26 am
277.60 04/07/2014 11:26:56 Apr 7 07:26 am Apr 7 4:26 am
277.60 04/07/2014 10:27:12 Apr 7 06:27 am Apr 7 3:27 am
277.60 04/07/2014 09:27:28 Apr 7 05:27 am Apr 7 2:27 am
277.60 04/07/2014 08:27:44 Apr 7 04:27 am Apr 7 1:27 am
277.60 04/07/2014 07:25:52 Apr 7 03:25 am Apr 7 12:25 am
277.60 04/07/2014 06:26:08 Apr 7 02:26 am Apr 6 11:26 pm
274.00 04/07/2014 05:26:24 Apr 7 01:26 am Apr 6 10:26 pm
277.60 04/07/2014 04:26:40 Apr 7 12:26 am Apr 6 9:26 pm
277.60 04/07/2014 03:26:56 Apr 6 11:26 pm Apr 6 8:26 pm
277.60 04/07/2014 01:27:28 Apr 6 09:27 pm Apr 6 6:27 pm
274.00 04/06/2014 23:25:52 Apr 6 07:25 pm Apr 6 4:25 pm
277.60 04/06/2014 22:26:08 Apr 6 06:26 pm Apr 6 3:26 pm
277.60 04/06/2014 21:26:24 Apr 6 05:26 pm Apr 6 2:26 pm
277.60 04/06/2014 20:26:40 Apr 6 04:26 pm Apr 6 1:26 pm
277.60 04/06/2014 19:26:56 Apr 6 03:26 pm Apr 6 12:26 pm
277.60 04/06/2014 18:27:12 Apr 6 02:27 pm Apr 6 11:27 am
281.21 04/06/2014 17:27:28 Apr 6 01:27 pm Apr 6 10:27 am
277.60 04/06/2014 16:27:44 Apr 6 12:27 pm Apr 6 9:27 am
281.21 04/06/2014 15:25:52 Apr 6 11:25 am Apr 6 8:25 am
277.60 04/06/2014 14:26:08 Apr 6 10:26 am Apr 6 7:26 am
277.60 04/06/2014 13:26:24 Apr 6 09:26 am Apr 6 6:26 am
277.60 04/06/2014 12:26:40 Apr 6 08:26 am Apr 6 5:26 am
277.60 04/06/2014 11:26:56 Apr 6 07:26 am Apr 6 4:26 am
277.60 04/06/2014 10:27:12 Apr 6 06:27 am Apr 6 3:27 am
277.60 04/06/2014 09:27:28 Apr 6 05:27 am Apr 6 2:27 am
277.60 04/06/2014 08:27:44 Apr 6 04:27 am Apr 6 1:27 am
277.60 04/06/2014 07:25:52 Apr 6 03:25 am Apr 6 12:25 am
274.00 04/06/2014 06:26:08 Apr 6 02:26 am Apr 5 11:26 pm
274.00 04/06/2014 05:26:24 Apr 6 01:26 am Apr 5 10:26 pm
277.60 04/06/2014 04:26:40 Apr 6 12:26 am Apr 5 9:26 pm
277.60 04/06/2014 01:27:28 Apr 5 09:27 pm Apr 5 6:27 pm
274.00 04/05/2014 23:25:52 Apr 5 07:25 pm Apr 5 4:25 pm
274.00 04/05/2014 22:26:08 Apr 5 06:26 pm Apr 5 3:26 pm

Report - Reports of Related Gauges

Reports give the public a chance to report on river conditions throughout the country as well as log the history of a river.

Reports

When River/Gauge Subject Level Reporter
4y329d08h01m Gauley at Summersville (cfs) [WV] Account of 05/26/09 245 cfs Ryan Groth

Linked Reaches

Click a heading to sort. Hover over a heading for help.
River Name/Section Class Level running? Updated
Gauley [WV] 7 (Upper). Summersville Dam to Mason Branch IV-V 225 cfs
0 cfs/hr
L9-
Below Recom.
01h31m
Gauley [WV] 9 (Lower). Bucklick Branch to Swiss III-IV(V) 631 cfs
0 cfs/hr
L4-
Below Recom.
00h59m

Associated Gauges

Disclaimer Data Sources

GAULEY RIVER BELOW SUMMERSVILLE DAM, WV (AW#1434)

7.13 ft 01h29m